[[{"header":{"parameterUnit":"m.s-1","parameterCategory":1,"la1":30.2991,"la2":30.254,"lo1":-89.0895,"lo2":-89.0444,"dy":0.0017,"dx":0.0017,"nx":28,"ny":28,"refTime":"2024-06-06T21:00:00:Z","depth":0,"parameterNumber":2,"parameterNumberName":"U-component_of_WINDS"},"data":[0,0,0,0,0,0,0,0,0,0,0,0,0,0,0,0,0,0,0,0,0,0,0,0,0,0,0,0,0,0,0,0,0,0,0,0,0,0,0,0,0,0,0,0,0,0,0,0,0,0,0,0,0,0,0,0,0,0,-0.7775,-0.7773,0,-0.7652,-0.7651,-0.7649,-0.7594,-0.7594,-0.7594,-0.7595,-0.7465,-0.7462,-0.7458,0,0,0,0,0,0,0,0,0,0,0,0,0,-0.7957,-0.7954,-0.7775,-0.7773,-0.7772,-0.7652,-0.7651,-0.7649,-0.7594,-0.7594,-0.7594,-0.7595,-0.7466,-0.7462,-0.7458,0,0,0,0,0,0,0,0,0,0,0,0,0,-0.7861,-0.7953,-0.7775,-0.773,-0.7725,-0.7653,-0.765,-0.7648,-0.7594,-0.7594,-0.7595,-0.7595,-0.7468,-0.7462,-0.7457,-0.7419,0,0,-0.7441,-0.7438,0,0,0,0,0,0,0,0,-0.7866,-0.7854,-0.7738,-0.7733,-0.7727,-0.7639,-0.7667,-0.7571,-0.7594,-0.7644,-0.7595,-0.7595,-0.7522,-0.7513,-0.7489,-0.7413,-0.7408,-0.744,-0.7437,-0.7435,-0.7433,0,0,0,0,0,0,0,-0.7873,-0.7859,-0.7726,-0.7737,-0.773,-0.7715,-0.7701,-0.7649,-0.7583,-0.7639,-0.7635,-0.7621,-0.7519,-0.7494,-0.7485,-0.7406,-0.744,-0.7436,-0.7432,-0.743,-0.729,-0.7289,0,0,0,0,0,0,-0.7888,-0.7865,-0.773,-0.7722,-0.7799,-0.7711,-0.7696,-0.7667,-0.7584,-0.7571,-0.7621,-0.7619,-0.7503,-0.7492,-0.7481,-0.7429,-0.7435,-0.743,-0.7426,-0.729,-0.729,-0.7289,0,0,0,0,0,0,-0.7892,-0.7876,-0.7735,-0.7792,-0.7773,-0.7708,-0.7675,-0.7664,-0.7639,-0.757,-0.7558,-0.7608,-0.7503,-0.7488,-0.7434,-0.7424,-0.7427,-0.7422,-0.7291,-0.729,-0.7289,-0.7327,0,0,0,0,0,0,-0.7897,-0.7878,-0.7864,-0.7793,-0.7771,-0.7693,-0.7675,-0.7662,-0.763,-0.7626,-0.7554,-0.7542,-0.7502,-0.7443,-0.7429,-0.7416,-0.7418,-0.7291,-0.7291,-0.729,-0.7326,-0.7327,-0.7328,0,0,0,0,0,-0.7904,-0.7879,-0.7864,-0.7848,-0.7752,-0.7692,-0.7679,-0.7634,-0.763,-0.7614,-0.757,-0.7545,-0.7428,-0.7438,-0.7422,-0.7407,-0.7292,-0.7291,-0.729,-0.7325,-0.7327,-0.7328,0,0,0,0,0,0,-0.795,-0.7869,-0.7851,-0.7803,-0.7755,-0.7683,-0.7662,-0.7638,-0.7589,-0.7588,-0.7533,-0.7517,-0.7467,-0.7432,-0.7445,-0.7365,-0.7357,-0.7353,-0.739,-0.7391,-0.7392,-0.7401,-0.7414,0,0,0,0,0,-0.7955,-0.7915,-0.7845,-0.7809,-0.7786,-0.7729,-0.7701,-0.767,-0.7618,-0.7597,-0.7548,-0.7498,-0.7449,-0.7418,-0.737,-0.7321,-0.7303,-0.7303,-0.7304,-0.7305,-0.7302,-0.7271,-0.7269,-0.7285,-0.7286,-0.7286,0,0,-0.7964,-0.7915,-0.7893,-0.7817,-0.7777,-0.7734,-0.7712,-0.7668,-0.7635,-0.759,-0.7536,-0.7499,-0.7438,-0.7386,-0.7361,-0.7355,-0.7293,-0.7304,-0.7305,-0.7301,-0.727,-0.7268,-0.7267,-0.7285,-0.7285,-0.7285,0,0,-0.7959,-0.7919,-0.7883,-0.7843,-0.7781,-0.7743,-0.7735,-0.7666,-0.7639,-0.7585,-0.7549,-0.7509,-0.7427,-0.7384,-0.7352,-0.7329,-0.7304,-0.7315,-0.732,-0.7291,-0.729,-0.7288,-0.7278,-0.7276,-0.7312,-0.7312,-0.7312,0,-0.7978,-0.7914,-0.7868,-0.7826,-0.7792,-0.775,-0.7712,-0.7675,-0.7601,-0.7578,-0.7573,-0.7468,-0.7425,-0.7361,-0.7356,-0.7332,-0.7318,-0.7323,-0.7294,-0.7292,-0.729,-0.728,-0.7276,-0.7314,-0.7314,-0.7313,-0.7313,0,-0.7939,-0.7895,-0.7873,-0.7803,-0.7767,-0.7728,-0.7674,-0.7644,-0.7616,-0.7577,-0.7521,-0.7467,-0.7406,-0.7389,-0.7362,-0.7321,-0.7319,-0.7305,-0.7296,-0.7291,-0.728,-0.7276,-0.7316,-0.7315,-0.7315,-0.7315,0,0,-0.796,-0.7864,-0.7857,-0.7823,-0.7752,-0.7716,-0.7674,-0.7615,-0.7589,-0.7538,-0.75,-0.7431,-0.7417,-0.7381,-0.7348,-0.7322,-0.7305,-0.731,-0.7308,-0.731,-0.7255,-0.7265,-0.7261,-0.7288,-0.7287,-0.7287,-0.7259,0,-0.7943,-0.7867,-0.7823,-0.7764,-0.7721,-0.7679,-0.7642,-0.7593,-0.7556,-0.7513,-0.7471,-0.7422,-0.7408,-0.7386,-0.7359,-0.7313,-0.7293,-0.7315,-0.725,-0.7248,-0.7265,-0.7256,-0.7267,-0.7244,-0.7255,-0.7254,-0.7254,0,-0.7914,-0.7865,-0.7802,-0.7733,-0.7714,-0.7681,-0.7622,-0.7583,-0.7526,-0.75,-0.7459,-0.7426,-0.7377,-0.7373,-0.7305,-0.732,-0.7291,-0.7265,-0.7262,-0.7253,-0.725,-0.7245,-0.7235,-0.7231,-0.7247,-0.7248,-0.7248,0,-0.7934,-0.7852,-0.7802,-0.7776,-0.7695,-0.7673,-0.7638,-0.7581,-0.7548,-0.7496,-0.7474,-0.7417,-0.7386,-0.7342,-0.7294,-0.7296,-0.723,-0.7222,-0.7205,-0.7206,-0.7192,-0.7193,-0.7176,-0.7176,-0.7176,-0.7176,-0.7177,0,-0.792,-0.7882,-0.781,-0.778,-0.7735,-0.7685,-0.7642,-0.7604,-0.7553,-0.7513,-0.7474,-0.7437,-0.7376,-0.7332,-0.7294,-0.7241,-0.7228,-0.7204,-0.7194,-0.7207,-0.721,-0.7186,-0.7186,-0.7175,-0.7176,-0.7176,-0.7176,0,-0.7934,-0.7884,-0.7827,-0.7756,-0.7737,-0.7707,-0.7645,-0.7612,-0.7573,-0.7523,-0.7508,-0.7445,-0.739,-0.7338,-0.7265,-0.7239,-0.7186,-0.7174,-0.7205,-0.72,-0.7185,-0.7187,-0.7151,-0.7143,-0.7151,-0.7151,-0.7151,0,-0.7927,-0.7897,-0.7822,-0.7792,-0.7759,-0.7712,-0.7678,-0.7626,-0.7592,-0.7524,-0.7499,-0.7442,-0.7392,-0.7306,-0.7253,-0.7196,-0.7181,-0.7173,-0.7172,-0.7185,-0.7179,-0.7181,-0.7176,-0.7173,-0.7173,-0.7174,-0.7174,0,-0.792,-0.7897,-0.785,-0.7793,-0.7753,-0.7706,-0.7657,-0.7635,-0.7574,-0.7537,-0.7481,-0.7443,-0.7367,-0.7309,-0.7246,-0.7209,-0.718,-0.7174,-0.7167,-0.7179,-0.7198,-0.7185,-0.7206,-0.7175,-0.7175,-0.7175,-0.7175,-0.7175,-0.7922,-0.7893,-0.7835,-0.7783,-0.7741,-0.7696,-0.7661,-0.7617,-0.757,-0.7504,-0.7477,-0.7419,-0.736,-0.7273,-0.7235,-0.7188,-0.7182,-0.7172,-0.7169,-0.7167,-0.7169,-0.7207,-0.7177,-0.7177,-0.7176,-0.7176,-0.7176,0,-0.7912,-0.7872,-0.7825,-0.7758,-0.7716,-0.7694,-0.7639,-0.7605,-0.7555,-0.7503,-0.7455,-0.7389,-0.7333,-0.7275,-0.7215,-0.7188,-0.7174,-0.7174,-0.7175,-0.7166,-0.7179,-0.719,-0.7187,-0.7187,-0.7187,-0.7187,-0.7187,-0.7187,-0.7902,-0.785,-0.7819,-0.7745,-0.7705,-0.7649,-0.7619,-0.7576,-0.7534,-0.7463,-0.7416,-0.7379,-0.7324,-0.7259,-0.7206,-0.719,-0.7169,-0.7173,-0.7153,-0.7166,-0.7165,-0.7165,-0.7175,-0.7169,-0.7169,-0.7144,-0.7144,-0.7143]},{"header":{"parameterUnit":"m.s-1","parameterCategory":1,"la1":30.2991,"la2":30.254,"lo1":-89.0895,"lo2":-89.0444,"dy":0.0017,"dx":0.0017,"nx":28,"ny":28,"refTime":"2024-06-06T21:00:00:Z","depth":0,"parameterNumber":3,"parameterNumberName":"V-component_of_WINDS"},"data":[0,0,0,0,0,0,0,0,0,0,0,0,0,0,0,0,0,0,0,0,0,0,0,0,0,0,0,0,0,0,0,0,0,0,0,0,0,0,0,0,0,0,0,0,0,0,0,0,0,0,0,0,0,0,0,0,0,0,3.1346,3.1346,0,3.138,3.138,3.1381,3.1404,3.1404,3.1404,3.1404,3.1436,3.1437,3.1437,0,0,0,0,0,0,0,0,0,0,0,0,0,3.1299,3.1299,3.1346,3.1346,3.1347,3.138,3.138,3.1381,3.1404,3.1404,3.1404,3.1405,3.1436,3.1437,3.1437,0,0,0,0,0,0,0,0,0,0,0,0,0,3.1324,3.13,3.1346,3.1362,3.1364,3.138,3.138,3.1381,3.1404,3.1404,3.1404,3.1405,3.1436,3.1437,3.1438,3.1438,0,0,3.1441,3.1441,0,0,0,0,0,0,0,0,3.1323,3.1326,3.1359,3.1361,3.1363,3.1388,3.1375,3.14,3.1404,3.1389,3.1404,3.1405,3.142,3.1422,3.1428,3.144,3.1441,3.1441,3.1441,3.1442,3.1442,0,0,0,0,0,0,0,3.1321,3.1325,3.1359,3.136,3.1362,3.1367,3.1371,3.138,3.1402,3.139,3.1392,3.1396,3.1421,3.1427,3.1429,3.1442,3.1441,3.1442,3.1442,3.1443,3.1457,3.1457,0,0,0,0,0,0,3.1317,3.1323,3.1358,3.136,3.1343,3.1368,3.1372,3.138,3.1402,3.1406,3.1395,3.1397,3.1425,3.1427,3.143,3.1433,3.1442,3.1443,3.1443,3.1457,3.1457,3.1457,0,0,0,0,0,0,3.1316,3.132,3.1357,3.1342,3.1347,3.1368,3.1376,3.138,3.1386,3.1406,3.141,3.1398,3.1425,3.1428,3.1436,3.1434,3.1443,3.1444,3.1457,3.1457,3.1457,3.1438,0,0,0,0,0,0,3.1315,3.1319,3.132,3.1342,3.1348,3.1363,3.1376,3.1381,3.1388,3.139,3.1409,3.1413,3.1426,3.1435,3.1437,3.1436,3.1445,3.1458,3.1457,3.1457,3.1439,3.1437,3.1436,0,0,0,0,0,3.1313,3.1313,3.132,3.1324,3.135,3.1363,3.1367,3.1382,3.1388,3.1389,3.1402,3.1412,3.1434,3.1435,3.1439,3.1437,3.1458,3.1457,3.1457,3.144,3.1438,3.1436,0,0,0,0,0,0,3.1289,3.1316,3.1325,3.1332,3.1345,3.1367,3.1369,3.1379,3.139,3.1392,3.141,3.1414,3.142,3.1429,3.1431,3.1439,3.1447,3.1447,3.1433,3.1431,3.1429,3.1427,3.1446,0,0,0,0,0,3.1285,3.1295,3.1317,3.1322,3.1328,3.1347,3.1354,3.1365,3.1379,3.1384,3.1398,3.141,3.142,3.1426,3.1436,3.1441,3.1445,3.1441,3.1439,3.1438,3.1438,3.1441,3.144,3.1455,3.1455,3.1455,0,0,3.1276,3.1292,3.1297,3.1317,3.1329,3.1338,3.1352,3.136,3.1367,3.1385,3.1394,3.1405,3.142,3.1426,3.143,3.1434,3.1435,3.1437,3.1436,3.1436,3.144,3.1439,3.1438,3.1454,3.1455,3.1455,0,0,3.1265,3.1278,3.1283,3.1295,3.1313,3.1326,3.1327,3.1348,3.1356,3.1365,3.138,3.1387,3.1404,3.1414,3.1422,3.1415,3.1425,3.1418,3.1409,3.1412,3.1411,3.141,3.1408,3.1407,3.1418,3.1417,3.1417,0,3.1251,3.1266,3.1284,3.1293,3.1301,3.132,3.1325,3.1335,3.1355,3.136,3.1365,3.1387,3.1398,3.1408,3.1406,3.1412,3.1413,3.1416,3.141,3.1409,3.1408,3.1406,3.1406,3.1417,3.1417,3.1417,3.1417,0,3.1249,3.1259,3.1261,3.1281,3.129,3.1297,3.1315,3.1322,3.1333,3.1345,3.1354,3.1369,3.1383,3.1386,3.1395,3.1396,3.1399,3.1406,3.1415,3.1405,3.1404,3.1404,3.1415,3.1415,3.1416,3.1416,0,0,3.1223,3.1254,3.1255,3.1264,3.1286,3.1294,3.1301,3.1316,3.1321,3.1334,3.1341,3.1355,3.1363,3.1371,3.1382,3.1385,3.1379,3.1392,3.1393,3.1389,3.1382,3.1376,3.1375,3.1386,3.1386,3.1386,3.1381,0,3.1215,3.1231,3.1248,3.1257,3.1267,3.1285,3.1291,3.1305,3.1317,3.1326,3.1338,3.1348,3.1357,3.1363,3.1366,3.1379,3.1378,3.138,3.1392,3.1392,3.1388,3.1374,3.1368,3.1362,3.138,3.138,3.138,0,3.1208,3.1222,3.1232,3.1254,3.1259,3.1264,3.128,3.1288,3.1304,3.1312,3.1322,3.1335,3.1343,3.135,3.1362,3.1363,3.1369,3.1376,3.1376,3.1378,3.1386,3.1376,3.1361,3.136,3.1379,3.1379,3.1379,0,3.1188,3.1209,3.1219,3.1227,3.1252,3.1256,3.1266,3.1282,3.129,3.1303,3.1308,3.1321,3.1329,3.1338,3.1354,3.1358,3.1364,3.1372,3.137,3.137,3.1371,3.1371,3.1357,3.1374,3.1374,3.1374,3.1374,0,3.1178,3.1183,3.1211,3.1216,3.1224,3.1243,3.1249,3.1261,3.1275,3.1283,3.1299,3.1306,3.1326,3.1335,3.1347,3.1355,3.1358,3.1365,3.1368,3.1363,3.1363,3.1367,3.1368,3.1374,3.1374,3.1374,3.1374,0,3.1157,3.1175,3.1187,3.1211,3.1217,3.1221,3.1241,3.1247,3.126,3.127,3.1273,3.1293,3.1305,3.1321,3.1337,3.1345,3.1352,3.1357,3.1347,3.1349,3.1346,3.1346,3.1335,3.1335,3.1352,3.1352,3.1352,0,3.1149,3.1154,3.1179,3.1186,3.1197,3.1208,3.1216,3.1235,3.1244,3.1263,3.1266,3.1279,3.1291,3.1309,3.1324,3.1337,3.1342,3.1337,3.1344,3.134,3.1342,3.1342,3.1343,3.1336,3.1335,3.1335,3.1335,0,3.1133,3.1142,3.1155,3.1171,3.1181,3.1194,3.1208,3.1213,3.1234,3.1243,3.1256,3.1265,3.1282,3.1295,3.131,3.132,3.1331,3.1333,3.1333,3.1329,3.1323,3.1327,3.1343,3.1333,3.1333,3.1333,3.1334,3.1334,3.1119,3.1125,3.1144,3.1157,3.117,3.1183,3.119,3.1204,3.1216,3.1232,3.1243,3.1255,3.1271,3.1292,3.1302,3.1311,3.1316,3.1316,3.1316,3.1316,3.1315,3.1322,3.1314,3.1314,3.1314,3.1314,3.1314,0,3.1104,3.1118,3.113,3.115,3.116,3.1171,3.1187,3.1195,3.1206,3.1221,3.1232,3.1247,3.126,3.1277,3.1291,3.1295,3.13,3.1298,3.1298,3.13,3.131,3.1309,3.1293,3.1293,3.1293,3.1293,3.1293,3.1293,3.1098,3.1109,3.112,3.1137,3.115,3.1164,3.1172,3.1184,3.1196,3.1212,3.1223,3.1235,3.125,3.1265,3.1277,3.1282,3.1286,3.1282,3.1288,3.1297,3.1299,3.1301,3.13,3.1283,3.1283,3.1278,3.1278,3.1278]}]]